Location: Pinhead Observatory
(34.4473°N, 118.1985°W)
Time: 06:39:34
(UTC-08:00)

Daily predictions for brighter satellites

Satellite Brightness Start Highest point End
(mag) Time Altitude Azimuth Time Altitude Azimuth Time Altitude Azimuth
NOSS 2-1 (D) 3.2 17:07:31 10° SSW 17:11:18 87° ESE 17:15:23 10° NNE
Cosmos 921 Rocket 3.1 17:07:18 10° S 17:11:27 58° ESE 17:15:43 10° NNE
COSMO-SKYMED 1 3.8 17:08:04 10° NE 17:11:32 23° E 17:15:00 10° SSE
NOSS 2-1 (C) 3.3 17:08:10 10° SSW 17:11:59 85° ESE 17:16:05 10° NNE
Cosmos 2218 Rocket 4.3 17:05:51 10° N 17:12:05 77° W 17:18:13 10° S
Cosmos 1025 Rocket 4.2 17:10:10 10° SE 17:13:37 23° E 17:17:05 10° NE
Cosmos 2278 Rocket 3.5 17:08:51 10° SW 17:14:08 40° WNW 17:19:26 10° N
Okean 1 3.7 17:10:55 10° SSW 17:14:56 69° W 17:19:00 10° N
Genesis I 3.2 17:12:51 10° NNW 17:16:46 86° WSW 17:20:39 10° SSE
Cosmos 1346 Rocket 2.7 17:14:06 10° S 17:17:59 89° W 17:21:53 10° N
Cosmos 1536 Rocket 4.5 17:17:15 10° SSW 17:21:37 53° W 17:26:01 10° N
IDEFIX/ARIANE 42P 2.5 17:17:48 10° SSE 17:22:58 73° ENE 17:28:09 10° N
ASTRO F (AKARI) 4.3 17:23:53 10° NNE 17:27:00 55° ESE 17:30:09 10° S
Thor Agena Rocket 3.8 17:22:28 10° N 17:27:43 77° WNW 17:32:58 10° SSW
NOSS 2-1 (E) 3.7 17:26:54 10° SW 17:30:42 63° WNW 17:34:52 10° NNE
YAOGAN 1 2.5 17:27:09 10° SSE 17:31:27 82° ENE 17:35:48 10° N
Cosmos 1821 Rocket 4.4 17:27:38 10° N 17:33:17 38° ENE 17:38:56 10° SSE
Cosmos 1833 Rocket 2.8 17:28:20 10° N 17:33:50 51° ENE 17:39:16 10° SE
Cosmos 1500 3.5 17:32:41 10° NNW 17:36:31 71° W 17:40:21 10° S
Cosmos 1743 2.8 17:35:38 10° N 17:39:24 52° E 17:43:08 10° SSE
Timation 2 Rocket 4.2 17:33:04 10° NNW 17:39:58 78° ENE 17:46:50 10° SSE
CZ-2C R/B 2.9 17:38:17 10° S 17:43:15 67° W 17:48:23 10° NNW
Cosmos 2082 Rocket 2.1 17:37:46 10° NNW 17:43:27 74° ENE 17:49:08 10° SSE
Meteor 1-28 Rocket 4.1 17:41:28 15° NE 17:43:53 28° E 17:47:10 10° SSE
COSMOS 2441 4.3 17:39:30 10° SSE 17:44:18 64° ENE 17:49:10 10° N
Meteor 2-21 Rocket 4.4 17:39:12 10° N 17:45:23 77° E 17:51:29 10° S
Meteor 2-16 Rocket 4.4 17:39:31 10° N 17:45:33 61° E 17:51:33 10° SSE
GRACE-2 3.8 17:46:04 10° S 17:48:51 88° W 17:51:38 10° N
GRACE-1 3.8 17:46:30 10° S 17:49:16 84° W 17:52:03 10° N
USA 234 3.9 17:44:04 10° NNE 17:50:19 50° NW 17:56:33 10° WSW
Cosmos 1484 Rocket 2.6 17:50:21 10° SSE 17:54:02 62° ENE 17:57:43 10° N
Delta 2 Rocket 3.0 17:53:28 10° W 17:57:04 74° N 17:58:58 29° E
Nadezhda 3 Rocket 4.4 17:51:01 10° SSW 17:57:10 65° W 18:03:25 10° N
SKYMED 2 3.5 17:55:21 10° NNE 17:59:43 89° ESE 18:04:02 10° SSW
Cosmos 2056 Rocket 3.5 17:59:16 10° SSW 18:04:39 87° WNW 18:09:59 10° NNE
Cosmos 407 Rocket 4.0 18:01:15 10° N 18:05:57 35° ENE 18:10:39 10° SE
Okean 2 3.4 18:02:40 10° S 18:06:45 59° E 18:09:32 20° NNE
Intercosmos 25 3.6 18:04:57 10° NNW 18:08:04 58° W 18:11:56 10° S
NOSS 3-4 (A) 3.9 18:01:16 10° NNW 18:08:13 55° NE 18:15:33 10° SE
NOSS 3-4 (C) 3.9 18:01:22 10° NNW 18:08:19 54° NE 18:15:38 10° SE
Cosmos 1892 Rocket 3.5 18:06:08 10° S 18:10:23 59° E 18:13:09 21° NNE
Tiangong 1 3.2 18:11:03 10° NW 18:12:41 16° N 18:12:41 16° N
Cosmos 2369 Rocket 2.6 18:11:59 10° S 18:17:14 41° ESE 18:18:41 35° ENE
Cosmos 1727 Rocket 4.1 18:12:49 10° SSE 18:18:45 50° E 18:23:21 17° NNE
Cosmos 1726 Rocket 3.5 18:15:52 10° N 18:20:17 62° E 18:24:42 10° SSE
NOAA 12 4.1 18:15:11 10° SSE 18:20:20 56° ENE 18:25:28 10° N
Meteor 2-9 Rocket 3.9 18:16:09 10° N 18:21:33 82° E 18:26:51 10° S
Meteor 1-15 Rocket 4.2 18:17:25 10° N 18:23:15 67° E 18:28:58 10° SSE
Meteor 1-23 Rocket 4.4 18:19:07 10° SSW 18:24:49 72° W 18:30:27 10° N
Meteor 2-4 Rocket 4.2 18:20:41 10° SSW 18:25:57 58° W 18:31:14 10° N
Cosmos 1340 2.5 18:24:38 10° S 18:28:25 85° E 18:28:48 70° NNE
OAO 2 Rocket 4.4 18:27:41 10° SSW 18:32:11 30° SSE 18:32:47 29° SE
Orbus 7S? 4.3 18:36:33 10° SW 18:38:12 30° SW 18:38:12 30° SW
Cosmos 1606 Rocket 4.0 18:35:26 10° NNW 18:39:51 62° W 18:44:15 10° S
Cosmos 1934 Rocket 4.3 18:37:34 10° NNW 18:43:46 66° W 18:50:01 10° S
Cosmos 1943 Rocket 3.7 18:40:39 10° SSE 18:42:42 20° SSE 18:42:42 20° SSE
METEOR-M 4.0 18:42:12 10° SSE 18:47:32 88° ENE 18:52:54 10° NNW
Cosmos 1666 4.5 18:47:11 10° NNW 18:50:39 32° W 18:54:08 10° SSW
Cosmos 1452 Rocket 3.6 18:48:18 10° SSW 18:53:33 75° WNW 18:54:40 54° N
Cosmos 1339 Rocket 4.3 18:48:02 10° S 18:54:05 87° E 18:56:45 36° N
Cosmos 1190 Rocket 4.5 18:52:47 10° NNW 18:57:55 58° WSW 19:03:00 10° S
Cosmos 2058 Rocket 4.5 19:16:30 36° WSW 19:16:30 36° WSW 19:20:01 10° SSW
Gbstr 26 Del rocket 4.3 19:12:25 10° SW 19:20:36 87° NW 19:21:09 79° NNE
ATLAS 3B CENTAUR R/B 3.7 19:21:01 10° W 19:36:35 48° SSW 19:37:53 45° S
Cosmos 2369 Rocket 4.2 19:56:51 10° WSW 20:00:33 23° WNW 20:00:33 23° WNW
FALCON 9 R/B 4.0 20:09:35 10° W 20:18:20 39° W 20:18:20 39° W
